CAPE
1447 1416 1374 1244 1130 1220 1308 1374 1346 1431 1803 1644 1711 1592 1601 1397 1323 1334 1222 875 362 288 208 241 206 64 134 338 466 602 648 684 674 756 778 823 904 1016 967 756 711 707 664 647 613 618 544 397 242 217 148 81 32 16 23 22 74 597 496 265 126 23 4 0 0 0 0 0 0 1 0 0 0 0 0 0 0 0 0 0 1 1 0 0 0
1626 1646 1556 1305 1268 1398 1454 1490 1445 1300 1519 1293 1419 1366 1378 1410 1172 1008 1003 780 454 351 251 212 164 4 194 341 303 632 638 652 726 842 766 768 799 805 1002 666 657 815 835 790 629 667 651 656 559 339 207 158 79 32 35 32 18 159 640 401 224 48 8 0 0 0 0 0 0 1 1 2 1 0 0 0 0 0 0 0 0 0 0 0 0
1530 1603 1362 1312 1384 1446 1499 1516 1514 1450 1284 993 1082 1173 1208 1382 1142 793 841 896 606 418 391 346 322 242 260 222 95 428 643 731 782 798 789 804 751 716 1023 956 816 970 878 796 825 724 770 767 745 466 236 204 178 106 76 37 28 31 666 516 264 124 25 3 0 0 1 0 0 0 0 0 0 1 0 0 0 1 0 0 0 0 0 0 0
1499 1499 1341 1292 1267 1222 1126 1179 1284 1321 1156 951 817 681 486 780 882 798 824 826 558 463 444 416 428 387 356 152 101 88 393 679 756 727 781 842 724 718 891 981 1042 1086 1040 825 887 1064 897 888 888 675 404 222 232 196 127 102 52 47 392 615 299 204 104 21 3 0 0 1 0 0 0 0 1 0 1 1 0 0 0 0 1 0 0 0 0
1441 1428 1103 1024 1074 1109 1144 1122 1100 1090 917 803 630 491 809 838 1013 834 864 731 641 526 480 438 459 474 593 553 342 159 319 382 684 770 777 841 757 705 854 940 937 1178 1031 986 928 1010 1147 1027 914 831 599 292 201 218 172 200 130 64 182 737 401 287 245 81 22 3 0 0 0 0 1 0 0 0 0 0 0 0 0 0 0 0 1 1 0
1464 1282 967 887 1064 986 1081 1197 1457 1331 1134 872 535 776 908 736 800 736 570 702 700 596 513 506 497 579 671 687 567 502 400 346 333 529 809 823 846 699 776 888 898 1034 1061 1320 1115 995 1064 1147 1065 899 772 615 392 266 249 166 226 110 142 637 542 386 350 250 69 18 0 0 0 1 1 1 1 0 1 0 0 0 0 0 0 0 0 0 0
1320 1066 861 935 974 882 1051 1173 1603 1652 1479 1111 744 866 781 555 669 578 492 602 622 567 526 533 534 547 458 449 461 448 408 410 472 311 402 667 816 719 640 834 847 919 1050 1047 1177 1096 1030 1100 1483 1283 993 735 655 534 412 166 222 219 114 422 543 466 407 256 244 92 12 1 0 0 2 2 4 2 0 0 0 0 0 0 0 0 0 0 0
1001 829 838 899 852 946 1010 884 1340 1414 1346 1108 839 837 636 478 467 495 522 528 542 466 476 488 507 529 514 536 446 397 400 380 404 456 277 213 322 645 607 681 764 794 1042 1018 1042 1030 1054 1036 1294 1311 1274 1094 727 716 692 515 275 303 237 163 405 449 401 282 235 237 102 48 5 0 2 4 3 3 2 0 0 1 1 0 0 0 0 0 0
944 772 833 1033 890 1124 1209 1294 1200 1142 1090 1006 842 797 690 540 366 384 387 477 451 386 359 378 402 397 537 1003 637 412 335 340 327 348 176 110 293 264 476 672 712 996 738 838 912 1033 1083 1062 1147 1258 1146 1127 1128 840 830 797 691 316 328 246 271 414 372 224 245 257 198 154 35 7 3 3 1 2 2 1 1 0 1 1 1 0 0 0 0
872 836 848 1033 1065 1398 1613 1770 1366 1028 1101 985 826 774 689 503 393 381 430 228 199 307 448 578 773 745 1063 977 898 1026 333 265 270 279 169 128 54 261 245 330 529 648 647 610 673 800 1020 1082 1097 1191 1182 1007 928 1248 887 879 923 610 360 435 398 297 375 297 201 204 248 199 139 54 4 1 0 1 0 1 1 1 0 2 1 0 0 0 0
998 957 1001 1066 1229 1394 1520 1529 1460 1067 1095 1022 963 849 739 614 422 473 585 341 283 408 489 575 556 594 590 675 686 914 687 353 632 374 344 128 134 171 183 196 252 304 430 567 518 568 745 936 1036 1068 1122 1141 874 1116 1178 1198 1066 937 526 532 664 523 339 341 317 258 149 214 256 84 29 2 0 0 0 0 1 0 0 0 1 0 0 0 0
1092 1112 955 1183 1350 1543 1522 1400 1196 1120 1069 1045 1036 997 864 690 574 538 932 871 567 530 460 492 420 507 597 580 754 886 433 229 426 508 374 86 16 2 31 117 173 233 247 431 555 514 519 667 842 958 1022 1058 1038 918 1120 1187 1148 1356 1035 752 818 943 632 430 446 394 255 165 304 192 105 21 0 0 0 0 0 0 0 0 0 1 0 0 0
924 898 1010 1478 1606 1744 1526 1447 1264 1247 1156 1160 1157 1202 1146 964 852 704 858 832 734 687 654 474 518 550 602 580 820 503 371 104 72 153 105 11 0 0 0 0 40 124 241 362 463 567 637 648 600 790 919 975 974 956 945 984 1006 1091 1237 1266 1225 1394 1209 720 559 526 451 290 209 314 240 80 21 0 0 0 0 0 0 0 0 0 0 0 0
920 1040 1481 1808 1602 1553 1774 1532 1393 1197 1146 1231 1288 1261 1236 1103 944 853 953 798 784 805 714 585 594 513 557 475 456 520 739 418 107 56 117 217 4 12 12 0 0 141 465 574 413 398 652 622 657 687 711 821 869 853 889 918 926 924 1312 1486 1452 1426 1230 1347 847 690 639 517 346 317 427 196 65 4 0 0 0 0 0 0 0 0 0 0 0
699 992 1344 1693 1724 1663 1635 1447 1361 1293 1242 1169 1047 895 826 771 825 777 988 932 827 869 745 613 714 806 590 0 399 0 59 0 22 14 114 54 22 61 61 27 16 0 422 482 389 423 422 832 881 742 628 610 638 656 713 803 865 856 853 1084 1428 1595 1593 1284 1394 1089 826 808 700 480 498 334 127 65 7 0 0 0 0 0 0 0 0 0 0
35 583 810 1244 1566 1648 1556 1485 1373 1336 1265 1155 1052 922 745 731 839 539 798 308 530 456 773 711 846 614 392 250 343 82 0 0 0 0 42 44 157 82 90 182 140 91 406 369 410 356 486 388 378 517 524 475 466 499 530 579 668 770 799 785 765 1088 1510 1523 1116 1132 1221 1134 1075 961 565 508 298 167 89 24 7 1 0 0 0 0 0 0 0
0 0 0 743 1123 1360 1501 1474 1443 1364 1187 1066 1017 900 778 620 878 656 418 207 230 899 862 815 844 525 396 277 38 40 10 95 14 0 0 5 264 317 466 458 287 320 382 335 249 261 444 477 436 416 349 358 444 558 566 566 559 558 731 679 688 678 810 818 1349 1575 1369 1058 1072 888 938 569 535 338 195 130 61 25 7 0 0 0 0 0 0
0 0 0 254 853 1021 1207 1503 1582 1432 1219 1146 1019 857 825 653 703 701 342 605 450 1000 928 764 755 786 660 872 45 28 215 424 0 2 0 234 0 0 5 1 26 171 227 222 140 81 247 378 384 588 678 665 474 373 540 572 557 521 554 594 568 582 640 748 733 1234 1630 1392 1241 1270 1100 824 502 486 313 184 114 63 26 8 0 0 0 0 0
0 0 0 0 58 246 457 673 1190 1351 1260 1168 964 842 820 878 834 817 771 1047 917 903 925 764 811 809 714 804 607 518 387 52 47 148 0 117 355 17 168 23 240 252 254 238 179 140 89 124 430 734 817 765 662 534 357 429 502 524 554 492 518 552 581 481 492 1126 1431 1662 1693 1204 1258 1171 903 676 430 257 152 104 52 31 8 2 0 0 0
0 0 0 0 0 0 0 0 275 535 685 914 841 789 834 749 810 640 612 796 844 664 788 846 719 833 724 698 642 589 517 512 360 77 37 36 3 0 244 5 418 359 287 238 78 236 195 88 87 401 506 486 575 611 420 380 430 457 602 608 612 659 756 687 386 335 634 1374 1704 1725 1295 1419 1283 1014 801 473 388 367 298 179 74 20 5 0 0
0 0 0 0 0 0 0 0 12 48 0 0 0 120 264 281 126 218 511 655 557 360 514 604 559 616 615 482 633 234 278 413 336 302 307 223 68 1 0 0 0 0 0 6 7 24 111 138 104 64 76 141 379 609 592 396 256 230 364 453 586 585 592 563 524 437 392 396 952 1697 1760 1448 1276 1228 956 856 738 646 591 516 456 367 261 2 0
0 0 0 0 0 0 0 0 0 0 8 17 20 7 0 0 0 99 318 281 139 94 117 110 117 205 309 285 115 2 0 0 0 0 172 150 81 6 0 0 0 0 0 0 0 0 2 48 93 72 34 50 330 117 16 229 390 360 334 314 325 432 487 483 480 461 462 493 532 721 1564 1618 1289 792 820 806 778 634 534 672 596 521 445 370 102
0 0 0 0 0 0 0 0 0 0 0 0 0 3 3 6 6 0 0 0 0 0 0 0 0 22 0 0 0 0 0 0 0 0 0 0 0 0 0 0 0 0 0 0 0 0 0 0 0 2 38 58 54 140 195 296 454 490 383 355 360 242 237 359 356 339 427 477 90 656 756 919 1186 1152 888 813 817 728 643 581 562 386 417 410 221
0 0 0 0 0 0 0 0 0 0 0 0 0 0 0 0 0 0 0 0 0 0 0 0 0 0 0 0 0 0 0 0 0 0 0 0 0 0 0 0 0 0 0 0 0 0 0 0 0 0 0 0 0 0 0 41 86 231 293 98 210 280 247 355 643 724 748 669 462 634 747 735 832 915 862 880 822 938 798 723 692 749 713 641 545
0 0 0 0 0 0 0 0 0 0 0 0 0 0 0 0 0 0 0 0 0 0 0 0 0 0 0 0 0 0 0 0 0 0 0 0 0 0 0 0 0 0 0 0 0 0 0 0 0 0 0 0 0 0 0 14 89 223 301 279 314 396 407 440 466 639 638 682 805 825 825 740 710 642 489 423 542 758 943 952 987 884 748 667 535
0 0 0 0 0 0 0 0 0 0 0 0 0 0 0 0 0 0 0 0 0 0 0 0 0 0 0 0 0 0 0 0 0 0 0 0 0 0 0 0 0 0 0 0 0 0 0 0 0 0 0 0 0 0 21 70 78 132 311 276 140 126 67 88 173 258 334 356 405 532 605 601 442 489 790 896 800 712 702 844 594 699 657 652 507
0 0 0 0 0 0 0 0 0 0 0 0 0 0 0 0 0 0 0 0 0 0 0 0 0 0 0 0 0 0 0 0 0 0 0 0 0 0 0 0 0 0 0 0 0 0 0 0 0 0 0 0 0 0 0 102 200 232 212 148 128 111 50 33 38 56 68 99 162 268 268 284 279 267 0 359 669 927 884 810 943 848 672 609 509
0 0 0 0 0 0 0 0 0 0 0 0 0 0 0 0 0 0 0 0 0 0 0 0 0 0 0 0 0 0 0 0 0 0 0 0 0 0 0 0 0 0 0 0 0 0 0 0 0 0 0 0 0 0 0 0 6 43 78 61 55 57 16 0 0 13 26 63 66 104 79 0 0 0 0 0 0 111 184 499 772 877 799 758 498
0 0 0 0 0 0 0 0 0 0 0 0 0 0 0 0 0 0 0 0 0 0 0 0 0 0 0 0 0 0 0 0 0 0 0 0 0 0 0 0 0 0 0 0 0 0 0 0 0 0 0 0 0 0 0 0 0 0 0 0 0 0 0 0 0 0 0 2 39 0 140 148 0 0 0 0 0 0 0 0 127 410 609 707 780
0 0 0 0 0 0 0 0 0 0 0 0 0 0 0 0 0 0 0 0 0 0 0 0 0 0 0 0 0 0 0 0 0 0 0 0 0 0 0 0 0 0 0 0 0 0 0 0 0 0 0 0 0 0 0 0 0 0 0 0 0 0 0 0 0 0 0 0 0 0 0 128 123 0 0 0 0 0 0 0 0 0 0 297 507
0 0 0 0 0 0 0 0 0 0 0 0 0 0 0 0 0 0 0 0 0 0 0 0 0 0 0 0 0 0 0 0 0 0 0 0 0 0 0 0 0 0 0 0 0 0 0 0 0 0 0 0 0 0 0 0 0 0 0 0 0 0 0 0 0 0 0 0 0 0 0 0 0 0 0 0 0 0 0 0 0 0 0 0 33
0 0 0 0 0 0 0 0 0 0 0 0 0 0 0 0 0 0 0 0 0 0 0 0 0 0 0 0 0 0 0 0 0 0 0 0 0 0 0 0 0 0 0 0 0 0 0 0 0 0 0 0 0 0 0 0 0 0 0 0 0 0 0 0 0 0 0 0 0 0 0 0 0 0 0 0 0 0 0 0 0 0 0 0 0
0 0 0 0 0 0 0 0 0 0 0 0 0 0 0 0 0 0 0 0 0 0 0 0 0 0 0 0 0 0 0 0 0 0 0 0 0 0 0 0 0 0 0 0 0 0 0 0 0 0 0 0 0 0 0 0 0 0 0 0 0 0 0 0 0 0 0 0 0 0 0 0 0 0 0 0 0 0 0 0 0 0 0 0 0
0 0 0 0 0 0 0 0 0 0 0 0 0 0 0 0 0 0 0 0 0 0 0 0 0 0 0 0 0 0 0 0 0 0 0 0 0 0 0 0 0 0 0 0 0 0 0 0 0 0 0 0 0 0 0 0 0 0 0 0 0 0 0 0 0 0 0 0 0 0 0 0 0 0 0 0 0 0 0 0 0 0 0 0 0
0 0 0 0 0 0 0 0 0 0 0 0 0 0 0 0 0 0 0 0 0 0 0 0 0 0 0 0 0 0 0 0 0 0 0 0 0 0 0 0 0 0 0 0 0 0 0 0 0 0 0 0 0 0 0 0 0 0 0 0 0 0 0 0 0 0 0 0 0 0 0 0 0 0 0 0 0 0 0 0 0 0 0 0 0
0 0 0 0 0 0 0 0 0 0 0 0 0 0 0 0 0 0 0 0 0 0 0 0 0 0 0 0 0 0 0 0 0 0 0 0 0 0 0 0 0 0 0 0 0 0 0 0 0 0 0 0 0 0 0 0 0 0 0 0 0 0 0 0 0 0 0 0 0 0 0 0 0 0 0 0 0 0 0 0 0 0 0 0 0
0 0 0 0 12 0 0 0 0 0 0 0 0 0 0 0 0 0 0 0 0 0 0 0 0 0 0 0 0 0 0 0 0 0 0 0 0 0 0 0 0 0 0 0 0 0 0 0 0 0 0 0 0 0 0 0 0 0 0 0 0 0 0 0 0 0 0 0 0 0 0 0 0 0 0 0 0 0 0 0 0 0 0 0 0
39 3 2 32 0 0 0 0 0 0 64 101 28 0 0 0 0 0 0 0 0 0 0 0 0 0 0 0 0 0 0 0 0 0 0 0 0 0 0 0 0 0 0 0 0 0 0 0 0 0 0 0 0 0 0 0 0 0 0 0 0 0 0 0 0 0 0 0 0 0 0 0 0 0 0 0 0 0 0 0 0 0 0 0 0
27 18 5 16 28 15 0 0 0 0 0 0 0 0 0 0 0 0 2 23 0 0 0 0 0 0 0 0 0 0 0 0 0 0 0 0 0 0 0 0 0 0 0 0 0 0 0 0 0 0 0 0 0 0 0 0 0 0 0 0 0 0 0 0 0 0 0 0 0 0 0 0 0 0 0 0 0 0 0 0 0 0 0 0 0
5 20 0 3 0 4 1 0 0 0 0 0 0 0 0 0 0 0 0 0 0 160 0 0 0 0 0 0 0 0 0 0 0 0 0 0 0 0 0 0 0 0 0 0 0 0 0 0 0 0 0 0 0 0 0 0 0 0 0 0 0 0 0 0 0 0 0 0 0 0 0 0 0 0 0 0 0 0 0 0 0 0 0 0 0
60 30 35 4 8 37 9 39 0 0 0 0 0 0 0 0 0 0 0 0 0 211 154 85 0 0 0 0 0 0 0 0 0 0 0 0 0 0 0 0 0 0 0 0 0 0 0 0 0 0 0 0 0 0 0 0 0 0 0 0 0 0 0 0 0 0 0 0 0 0 0 0 0 0 0 0 0 0 0 0 0 0 0 0 0
2 30 0 3 0 0 0 0 0 0 0 0 0 0 0 0 0 0 0 0 0 0 0 0 0 60 54 93 0 29 0 0 0 0 0 0 0 0 0 0 0 0 0 0 0 0 0 0 0 0 0 0 0 0 0 0 0 0 0 0 0 0 0 0 0 0 0 0 0 0 0 0 0 0 0 0 0 0 0 0 0 0 0 0 0
0 0 0 0 0 0 0 0 0 0 0 0 0 0 0 0 0 79 134 120 98 190 214 205 190 193 175 170 62 0 0 24 32 0 0 0 0 0 0 0 0 0 0 0 0 0 0 0 0 0 0 0 0 0 0 0 0 0 0 0 0 0 0 0 0 0 0 0 0 0 0 0 0 0 0 0 0 0 0 0 0 0 0 0 0
48 123 260 127 114 244 264 256 123 111 102 92 86 83 131 138 164 196 239 247 286 293 312 276 238 170 45 10 0 0 0 0 0 0 0 0 0 0 0 0 0 0 0 0 0 0 0 0 0 0 0 0 0 0 0 0 0 0 0 0 0 0 0 0 0 0 0 0 0 0 0 0 0 0 0 0 0 0 0 0 0 0 0 0 0
0 0 0 0 0 148 235 317 321 294 285 328 339 418 527 559 548 530 525 503 400 349 338 310 156 103 124 83 13 9 3 5 0 1 0 0 0 0 0 0 0 0 0 0 0 0 0 0 0 0 0 0 0 0 0 0 0 0 0 0 0 0 0 0 0 0 0 0 0 0 0 0 0 0 0 0 0 0 0 0 0 0 0 0 0
0 0 0 0 0 107 222 272 327 419 535 623 539 363 257 238 314 385 446 526 550 484 378 300 249 233 165 18 11 5 21 4 3 1 2 2 0 0 0 0 0 0 0 0 0 0 0 0 0 0 0 0 0 0 0 0 0 0 0 0 0 0 0 0 0 0 0 0 0 0 0 0 0 0 0 0 0 0 0 0 0 0 0 0 0
0 0 0 0 0 93 228 323 434 414 332 227 108 0 0 30 131 215 296 364 389 364 305 241 184 2 0 2 8 22 29 4 0 1 1 0 0 0 0 0 0 0 0 0 0 0 0 0 0 0 0 0 0 0 0 0 0 0 0 0 0 0 0 0 0 0 0 0 0 0 0 0 0 0 0 0 0 0 0 0 0 0 0 0 0
0 0 0 0 0 0 252 327 232 44 0 0 0 0 0 0 0 32 156 227 284 302 286 229 172 74 0 0 1 5 1 6 4 1 0 0 0 0 0 0 0 0 0 0 0 0 0 0 0 0 0 0 0 0 0 0 0 0 0 0 0 0 0 0 0 0 0 0 0 0 0 0 0 0 0 0 0 0 0 0 0 0 0 0 0
0 0 0 0 0 0 0 88 192 219 209 49 0 0 0 0 0 0 0 0 32 84 91 101 131 0 26 0 0 0 2 0 0 0 1 1 0 0 0 0 0 0 0 0 0 0 0 0 0 0 0 0 0 0 0 0 0 0 0 0 0 0 0 0 0 0 0 0 0 0 0 0 0 0 0 0 0 0 0 9 10 2 0 0 0
0 0 0 0 0 72 179 236 284 276 244 194 0 0 0 0 0 0 0 0 0 0 0 0 0 0 7 39 24 0 4 4 6 5 2 0 0 0 0 1 0 0 0 0 0 0 0 0 0 0 0 0 0 0 0 0 0 0 0 0 0 0 0 0 0 0 0 0 0 0 0 0 0 0 0 0 0 0 3 35 30 18 11 0 0
0 0 0 0 86 171 211 226 230 222 204 156 0 0 0 0 0 0 0 0 0 0 0 0 22 27 2 2 3 2 3 6 6 2 1 2 0 0 1 0 3 10 10 0 0 0 0 0 0 0 0 0 0 0 0 0 0 0 0 0 0 0 0 0 0 0 0 0 0 0 0 0 0 0 0 0 0 0 7 31 37 24 11 0 0
Wind_Speed
23 22 20 18 19 18 17 16 15 15 16 16 17 17 16 15 15 15 16 16 16 15 16 17 17 nan 19 21 23 22 25 26 27 29 29 29 30 30 30 30 29 29 30 31 31 32 31 30 29 27 25 nan nan nan nan nan nan 21 20 22 22 nan nan nan nan nan nan nan nan nan nan nan nan nan nan nan nan nan nan nan nan nan nan nan nan
20 21 18 13 16 17 17 17 15 12 14 13 11 14 14 15 15 15 16 17 17 17 20 22 22 nan 25 28 25 23 24 23 25 26 28 30 31 31 30 29 27 27 27 28 29 32 32 31 30 29 26 24 nan nan nan nan nan 21 21 23 23 nan nan nan nan nan nan nan nan nan nan nan nan nan nan nan nan nan nan nan nan nan nan nan nan
15 15 11 9 13 15 13 10 5 6 7 7 9 12 14 13 13 13 13 17 17 20 25 25 25 27 27 28 nan 27 26 25 24 24 25 27 30 32 31 28 26 25 25 25 27 30 31 32 31 30 28 25 24 23 nan nan nan nan 23 24 25 24 nan nan nan nan nan nan nan nan nan nan nan nan nan nan nan nan nan nan nan nan nan nan nan
9 11 9 8 10 12 10 9 10 10 9 8 8 10 13 13 13 14 16 18 18 21 21 24 25 27 29 29 29 nan 29 28 26 24 23 24 27 30 32 31 27 25 23 23 24 27 29 31 31 30 29 27 25 24 23 23 nan nan 24 26 26 26 25 nan nan nan nan nan nan nan nan nan nan nan nan nan nan nan nan nan nan nan nan nan nan
9 9 10 8 9 11 11 14 15 13 9 6 7 7 8 12 16 20 21 20 21 20 21 23 26 26 27 29 31 32 28 29 28 25 23 22 22 27 31 33 31 26 22 21 22 23 25 27 29 30 29 29 28 25 24 23 23 nan 25 27 27 26 26 nan nan nan nan nan nan nan nan nan nan nan nan nan nan nan nan nan nan nan nan nan nan
9 8 9 8 8 10 12 12 10 9 9 6 7 8 10 10 12 17 19 21 22 20 22 23 25 26 28 28 32 32 30 29 27 26 24 23 23 25 29 33 32 30 28 23 21 21 22 25 26 27 29 29 30 27 26 24 24 24 25 27 28 27 27 27 nan nan nan nan nan nan nan nan nan nan nan nan nan nan nan nan nan nan nan nan nan
6 8 10 8 6 9 11 9 7 9 10 8 9 9 11 11 11 13 15 18 20 19 20 22 23 26 27 29 32 32 32 30 28 27 26 23 21 22 27 31 34 32 30 27 25 21 21 23 24 26 26 28 29 28 27 26 26 25 25 27 28 29 29 28 27 nan nan nan nan nan nan nan nan nan nan nan nan nan nan nan nan nan nan nan nan
8 7 10 8 6 10 10 9 9 10 10 8 8 10 9 10 7 11 13 14 17 18 18 21 23 25 25 28 29 29 31 30 29 27 25 24 23 22 24 29 34 33 31 29 27 25 20 21 23 24 25 27 27 27 26 27 27 26 25 26 27 28 30 29 28 28 28 nan nan nan nan nan nan nan nan nan nan nan nan nan nan nan nan nan nan
10 6 8 7 10 12 10 9 11 11 10 10 9 8 9 11 7 5 9 12 13 15 16 18 22 24 25 25 25 25 27 26 25 24 24 24 22 24 25 28 32 33 32 30 28 27 23 20 21 22 24 26 27 25 25 25 26 26 25 26 27 28 29 30 29 28 29 29 nan nan nan nan nan nan nan nan nan nan nan nan nan nan nan nan nan
10 5 7 6 11 12 12 10 11 12 11 10 11 11 9 10 10 5 6 10 11 13 14 16 19 22 22 22 23 23 23 24 22 22 24 23 nan 22 23 27 30 32 33 31 28 27 27 23 20 22 23 26 26 26 24 25 25 26 26 26 26 27 29 30 30 30 29 30 30 nan nan nan nan nan nan nan nan nan nan nan nan nan nan nan nan
8 7 7 6 10 11 14 10 11 12 12 12 12 12 12 10 10 9 8 8 10 12 14 15 16 16 16 17 16 16 19 21 20 20 21 21 21 20 19 21 26 30 32 33 31 30 29 29 29 28 27 24 25 26 26 25 24 24 26 26 27 28 29 29 30 30 29 29 29 nan nan nan nan nan nan nan nan nan nan nan nan nan nan nan nan
11 9 10 10 11 11 13 12 13 13 14 14 14 14 14 13 12 11 11 10 10 12 13 14 12 11 7 8 10 10 12 15 16 17 17 nan nan nan nan 19 20 23 28 31 33 33 33 33 32 31 32 30 26 26 26 26 27 26 24 25 25 26 28 28 28 29 29 27 27 28 29 nan nan nan nan nan nan nan nan nan nan nan nan nan nan
16 15 14 13 13 13 13 13 15 15 15 15 14 16 15 15 13 12 12 12 11 11 12 14 12 7 5 6 8 9 10 13 nan 15 16 nan nan nan nan nan nan 20 22 28 32 34 37 37 36 35 34 34 32 28 26 26 28 27 24 22 21 21 24 26 27 27 27 26 25 26 29 nan nan nan nan nan nan nan nan nan nan nan nan nan nan
18 16 16 17 16 14 14 15 17 19 17 16 16 16 17 16 15 14 12 13 11 11 9 13 10 8 8 8 10 9 11 13 14 nan 16 17 nan nan nan nan nan 20 22 24 29 33 35 37 39 40 39 38 36 35 32 29 28 26 26 22 19 18 20 23 25 25 24 24 24 24 28 28 nan nan nan nan nan nan nan nan nan nan nan nan nan
17 17 17 16 17 16 16 17 19 19 19 18 17 17 17 17 17 17 15 15 13 12 9 11 11 12 11 nan 12 nan nan nan nan nan 17 nan nan nan nan nan nan nan 21 23 25 28 31 34 36 39 41 42 40 38 36 33 27 25 24 22 20 19 17 19 22 22 22 22 22 22 25 26 26 nan nan nan nan nan nan nan nan nan nan nan nan
nan 16 16 16 17 17 17 17 18 18 19 19 17 16 16 17 17 17 17 17 12 13 11 11 13 16 13 13 13 nan nan nan nan nan nan nan 20 nan nan 19 18 nan 20 22 23 25 27 30 31 34 38 43 44 42 39 36 28 24 24 22 20 19 17 15 16 18 18 20 21 22 24 25 25 25 nan nan nan nan nan nan nan nan nan nan nan
nan nan nan 16 16 17 17 17 17 17 18 18 17 15 15 16 17 18 16 17 16 16 15 13 13 15 16 17 nan nan nan nan nan nan nan nan 22 23 22 21 20 20 21 21 23 24 27 28 28 30 32 37 43 45 42 37 33 31 28 22 19 19 18 14 14 13 14 17 17 18 22 24 24 24 24 24 nan nan nan nan nan nan nan nan nan
nan nan nan 17 17 16 15 16 16 17 17 17 17 16 15 16 15 17 17 17 19 18 18 16 16 18 17 17 nan nan 19 19 nan nan nan 22 nan nan nan nan nan 21 21 21 21 nan 26 27 27 27 28 31 36 42 44 40 35 34 33 29 22 19 16 15 12 12 11 13 15 15 17 21 21 22 23 23 24 nan nan nan nan nan nan nan nan
nan nan nan nan nan 17 17 17 17 17 17 18 17 15 14 13 16 17 16 18 20 19 19 18 20 19 19 20 21 21 21 nan nan 22 nan 21 22 nan 21 nan 23 22 21 20 21 22 nan 25 25 25 25 26 29 35 41 42 38 35 31 29 27 23 18 16 15 13 11 11 13 14 14 16 20 20 21 22 22 24 nan nan nan nan nan nan nan
nan nan nan nan nan nan nan nan 20 18 18 18 17 16 18 18 17 17 18 19 19 21 20 19 21 19 20 22 23 23 23 24 23 nan nan nan nan nan 22 nan 22 20 20 19 nan 19 19 nan nan 22 24 24 25 28 34 42 43 41 39 32 28 26 22 18 17 16 15 13 13 14 13 15 17 21 21 21 22 23 24 24 nan nan nan nan nan
nan nan nan nan nan nan nan nan nan nan nan nan nan 18 19 20 19 20 22 21 21 21 23 21 22 21 23 24 24 24 24 24 24 24 22 21 nan nan nan nan nan nan nan nan nan nan 16 16 17 nan nan 22 24 25 29 36 42 42 40 36 31 27 25 22 20 20 19 18 16 15 15 16 16 23 21 21 22 23 24 25 24 23 22 nan nan
nan nan nan nan nan nan nan nan nan nan nan nan nan nan nan nan nan nan 21 23 22 nan 24 24 25 24 24 23 24 nan nan nan nan nan 24 21 nan nan nan nan nan nan nan nan nan nan nan nan nan nan nan nan 23 24 nan 32 36 40 41 35 33 31 29 28 26 25 24 21 21 19 19 18 23 22 19 17 20 21 24 26 27 26 24 23 25
nan nan nan nan nan nan nan nan nan nan nan nan nan nan nan nan nan nan nan nan nan nan nan nan nan nan nan nan nan nan nan nan nan nan nan nan nan nan nan nan nan nan nan nan nan nan nan nan nan nan nan nan nan 22 23 24 26 32 31 33 35 33 32 33 32 30 27 23 nan 31 27 27 27 24 22 22 20 22 22 25 25 26 26 24 27
nan nan nan nan nan nan nan nan nan nan nan nan nan nan nan nan nan nan nan nan nan nan nan nan nan nan nan nan nan nan nan nan nan nan nan nan nan nan nan nan nan nan nan nan nan nan nan nan nan nan nan nan nan nan nan nan nan 23 29 nan 27 32 36 35 34 34 32 32 28 29 29 25 23 26 25 25 23 20 20 21 24 27 27 28 29
nan nan nan nan nan nan nan nan nan nan nan nan nan nan nan nan nan nan nan nan nan nan nan nan nan nan nan nan nan nan nan nan nan nan nan nan nan nan nan nan nan nan nan nan nan nan nan nan nan nan nan nan nan nan nan nan nan 38 39 38 39 30 31 35 39 39 37 36 32 38 34 32 31 31 28 23 23 21 21 20 23 29 30 30 28
nan nan nan nan nan nan nan nan nan nan nan nan nan nan nan nan nan nan nan nan nan nan nan nan nan nan nan nan nan nan nan nan nan nan nan nan nan nan nan nan nan nan nan nan nan nan nan nan nan nan nan nan nan nan nan nan nan 37 39 36 38 46 nan nan 49 47 44 41 38 41 38 37 37 33 33 31 31 31 28 26 28 29 31 31 32
nan nan nan nan nan nan nan nan nan nan nan nan nan nan nan nan nan nan nan nan nan nan nan nan nan nan nan nan nan nan nan nan nan nan nan nan nan nan nan nan nan nan nan nan nan nan nan nan nan nan nan nan nan nan nan 22 25 32 36 36 38 42 nan nan nan nan nan nan 40 40 40 39 39 37 nan 38 39 38 36 34 30 34 35 33 33
nan nan nan nan nan nan nan nan nan nan nan nan nan nan nan nan nan nan nan nan nan nan nan nan nan nan nan nan nan nan nan nan nan nan nan nan nan nan nan nan nan nan nan nan nan nan nan nan nan nan nan nan nan nan nan nan nan nan nan nan nan nan nan nan nan nan nan nan nan 38 nan nan nan nan nan nan nan 39 39 42 40 36 35 33 34
nan nan nan nan nan nan nan nan nan nan nan nan nan nan nan nan nan nan nan nan nan nan nan nan nan nan nan nan nan nan nan nan nan nan nan nan nan nan nan nan nan nan nan nan nan nan nan nan nan nan nan nan nan nan nan nan nan nan nan nan nan nan nan nan nan nan nan nan nan nan 38 38 nan nan nan nan nan nan nan nan 39 39 37 34 33
nan nan nan nan nan nan nan nan nan nan nan nan nan nan nan nan nan nan nan nan nan nan nan nan nan nan nan nan nan nan nan nan nan nan nan nan nan nan nan nan nan nan nan nan nan nan nan nan nan nan nan nan nan nan nan nan nan nan nan nan nan nan nan nan nan nan nan nan nan nan nan 36 36 nan nan nan nan nan nan nan nan nan nan 32 33
nan nan nan nan nan nan nan nan nan nan nan nan nan nan nan nan nan nan nan nan nan nan nan nan nan nan nan nan nan nan nan nan nan nan nan nan nan nan nan nan nan nan nan nan nan nan nan nan nan nan nan nan nan nan nan nan nan nan nan nan nan nan nan nan nan nan nan nan nan nan nan nan nan nan nan nan nan nan nan nan nan nan nan nan nan
nan nan nan nan nan nan nan nan nan nan nan nan nan nan nan nan nan nan nan nan nan nan nan nan nan nan nan nan nan nan nan nan nan nan nan nan nan nan nan nan nan nan nan nan nan nan nan nan nan nan nan nan nan nan nan nan nan nan nan nan nan nan nan nan nan nan nan nan nan nan nan nan nan nan nan nan nan nan nan nan nan nan nan nan nan
nan nan nan nan nan nan nan nan nan nan nan nan nan nan nan nan nan nan nan nan nan nan nan nan nan nan nan nan nan nan nan nan nan nan nan nan nan nan nan nan nan nan nan nan nan nan nan nan nan nan nan nan nan nan nan nan nan nan nan nan nan nan nan nan nan nan nan nan nan nan nan nan nan nan nan nan nan nan nan nan nan nan nan nan nan
nan nan nan nan nan nan nan nan nan nan nan nan nan nan nan nan nan nan nan nan nan nan nan nan nan nan nan nan nan nan nan nan nan nan nan nan nan nan nan nan nan nan nan nan nan nan nan nan nan nan nan nan nan nan nan nan nan nan nan nan nan nan nan nan nan nan nan nan nan nan nan nan nan nan nan nan nan nan nan nan nan nan nan nan nan
nan nan nan nan nan nan nan nan nan nan nan nan nan nan nan nan nan nan nan nan nan nan nan nan nan nan nan nan nan nan nan nan nan nan nan nan nan nan nan nan nan nan nan nan nan nan nan nan nan nan nan nan nan nan nan nan nan nan nan nan nan nan nan nan nan nan nan nan nan nan nan nan nan nan nan nan nan nan nan nan nan nan nan nan nan
nan nan nan nan nan nan nan nan nan nan nan nan nan nan nan nan nan nan nan nan nan nan nan nan nan nan nan nan nan nan nan nan nan nan nan nan nan nan nan nan nan nan nan nan nan nan nan nan nan nan nan nan nan nan nan nan nan nan nan nan nan nan nan nan nan nan nan nan nan nan nan nan nan nan nan nan nan nan nan nan nan nan nan nan nan
nan nan nan nan nan nan nan nan nan nan nan nan nan nan nan nan nan nan nan nan nan nan nan nan nan nan nan nan nan nan nan nan nan nan nan nan nan nan nan nan nan nan nan nan nan nan nan nan nan nan nan nan nan nan nan nan nan nan nan nan nan nan nan nan nan nan nan nan nan nan nan nan nan nan nan nan nan nan nan nan nan nan nan nan nan
nan nan nan nan nan nan nan nan nan nan nan 29 nan nan nan nan nan nan nan nan nan nan nan nan nan nan nan nan nan nan nan nan nan nan nan nan nan nan nan nan nan nan nan nan nan nan nan nan nan nan nan nan nan nan nan nan nan nan nan nan nan nan nan nan nan nan nan nan nan nan nan nan nan nan nan nan nan nan nan nan nan nan nan nan nan
nan nan nan nan nan nan nan nan nan nan nan nan nan nan nan nan nan nan nan nan nan nan nan nan nan nan nan nan nan nan nan nan nan nan nan nan nan nan nan nan nan nan nan nan nan nan nan nan nan nan nan nan nan nan nan nan nan nan nan nan nan nan nan nan nan nan nan nan nan nan nan nan nan nan nan nan nan nan nan nan nan nan nan nan nan
nan nan nan nan nan nan nan nan nan nan nan nan nan nan nan nan nan nan nan nan nan 22 nan nan nan nan nan nan nan nan nan nan nan nan nan nan nan nan nan nan nan nan nan nan nan nan nan nan nan nan nan nan nan nan nan nan nan nan nan nan nan nan nan nan nan nan nan nan nan nan nan nan nan nan nan nan nan nan nan nan nan nan nan nan nan
nan nan nan nan nan nan nan nan nan nan nan nan nan nan nan nan nan nan nan nan nan 27 28 nan nan nan nan nan nan nan nan nan nan nan nan nan nan nan nan nan nan nan nan nan nan nan nan nan nan nan nan nan nan nan nan nan nan nan nan nan nan nan nan nan nan nan nan nan nan nan nan nan nan nan nan nan nan nan nan nan nan nan nan nan nan
nan nan nan nan nan nan nan nan nan nan nan nan nan nan nan nan nan nan nan nan nan nan nan nan nan nan nan nan nan nan nan nan nan nan nan nan nan nan nan nan nan nan nan nan nan nan nan nan nan nan nan nan nan nan nan nan nan nan nan nan nan nan nan nan nan nan nan nan nan nan nan nan nan nan nan nan nan nan nan nan nan nan nan nan nan
nan nan nan nan nan nan nan nan nan nan nan nan nan nan nan nan nan nan 40 38 nan 37 37 38 39 39 38 37 nan nan nan nan nan nan nan nan nan nan nan nan nan nan nan nan nan nan nan nan nan nan nan nan nan nan nan nan nan nan nan nan nan nan nan nan nan nan nan nan nan nan nan nan nan nan nan nan nan nan nan nan nan nan nan nan nan
nan 48 47 45 45 44 44 44 42 40 40 nan nan nan 43 41 40 41 41 41 40 40 40 41 42 43 nan nan nan nan nan nan nan nan nan nan nan nan nan nan nan nan nan nan nan nan nan nan nan nan nan nan nan nan nan nan nan nan nan nan nan nan nan nan nan nan nan nan nan nan nan nan nan nan nan nan nan nan nan nan nan nan nan nan nan
nan nan nan nan nan 46 48 48 47 48 48 50 50 49 47 46 45 46 44 43 43 42 43 47 47 43 43 nan nan nan nan nan nan nan nan nan nan nan nan nan nan nan nan nan nan nan nan nan nan nan nan nan nan nan nan nan nan nan nan nan nan nan nan nan nan nan nan nan nan nan nan nan nan nan nan nan nan nan nan nan nan nan nan nan nan
nan nan nan nan nan 44 47 48 50 53 53 49 49 48 47 46 45 48 46 45 46 47 48 48 47 48 49 nan nan nan nan nan nan nan nan nan nan nan nan nan nan nan nan nan nan nan nan nan nan nan nan nan nan nan nan nan nan nan nan nan nan nan nan nan nan nan nan nan nan nan nan nan nan nan nan nan nan nan nan nan nan nan nan nan nan
nan nan nan nan nan nan 47 49 52 51 49 47 50 nan nan nan 52 51 51 53 54 54 53 51 51 nan nan nan nan nan nan nan nan nan nan nan nan nan nan nan nan nan nan nan nan nan nan nan nan nan nan nan nan nan nan nan nan nan nan nan nan nan nan nan nan nan nan nan nan nan nan nan nan nan nan nan nan nan nan nan nan nan nan nan nan
nan nan nan nan nan nan 51 51 51 nan nan nan nan nan nan nan nan nan 57 58 58 57 57 56 57 nan nan nan nan nan nan nan nan nan nan nan nan nan nan nan nan nan nan nan nan nan nan nan nan nan nan nan nan nan nan nan nan nan nan nan nan nan nan nan nan nan nan nan nan nan nan nan nan nan nan nan nan nan nan nan nan nan nan nan nan
nan nan nan nan nan nan nan nan 51 50 48 nan nan nan nan nan nan nan nan nan nan nan nan 55 56 nan nan nan nan nan nan nan nan nan nan nan nan nan nan nan nan nan nan nan nan nan nan nan nan nan nan nan nan nan nan nan nan nan nan nan nan nan nan nan nan nan nan nan nan nan nan nan nan nan nan nan nan nan nan nan nan nan nan nan nan
nan nan nan nan nan nan 55 52 52 53 49 48 nan nan nan nan nan nan nan nan nan nan nan nan nan nan nan nan nan nan nan nan nan nan nan nan nan nan nan nan nan nan nan nan nan nan nan nan nan nan nan nan nan nan nan nan nan nan nan nan nan nan nan nan nan nan nan nan nan nan nan nan nan nan nan nan nan nan nan nan nan nan nan nan nan
nan nan nan nan nan 54 53 54 55 56 53 51 nan nan nan nan nan nan nan nan nan nan nan nan nan nan nan nan nan nan nan nan nan nan nan nan nan nan nan nan nan nan nan nan nan nan nan nan nan nan nan nan nan nan nan nan nan nan nan nan nan nan nan nan nan nan nan nan nan nan nan nan nan nan nan nan nan nan nan nan nan nan nan nan nan
Wind_Direction
293 291 282 275 267 262 266 274 276 283 277 265 260 260 253 250 247 246 247 246 245 236 232 243 248 nan 240 245 250 259 256 251 248 245 243 243 242 243 249 252 254 255 256 258 258 257 255 255 254 256 256 nan nan nan nan nan nan 264 264 261 257 nan nan nan nan nan nan nan nan nan nan nan nan nan nan nan nan nan nan nan nan nan nan nan nan
296 290 284 276 268 269 270 273 282 281 281 272 260 262 257 246 239 239 243 247 246 246 246 247 243 nan 243 244 244 248 251 254 256 256 253 248 245 241 249 250 252 255 256 259 261 259 258 257 256 255 256 255 nan nan nan nan nan 259 265 267 263 nan nan nan nan nan nan nan nan nan nan nan nan nan nan nan nan nan nan nan nan nan nan nan nan
300 291 280 276 268 273 279 277 313 344 328 293 272 276 267 259 247 243 246 249 252 246 248 248 244 241 244 247 nan 248 250 249 250 254 254 252 248 243 243 248 248 253 257 258 259 261 261 259 258 257 258 256 254 255 nan nan nan nan 265 268 266 264 nan nan nan nan nan nan nan nan nan nan nan nan nan nan nan nan nan nan nan nan nan nan nan
304 285 290 282 274 274 291 319 352 4 351 332 318 296 277 259 252 254 254 255 255 253 256 256 252 250 249 251 250 nan 247 250 254 254 252 249 245 245 243 240 244 249 254 255 256 258 261 261 260 259 259 258 256 255 257 259 nan nan 263 268 268 267 265 nan nan nan nan nan nan nan nan nan nan nan nan nan nan nan nan nan nan nan nan nan nan
291 290 280 270 270 289 311 330 343 351 346 345 326 314 287 269 257 252 256 255 257 260 261 263 261 255 252 251 253 251 247 248 251 254 254 252 248 242 240 238 237 245 250 253 253 253 258 261 262 260 260 260 259 257 257 257 259 nan 262 268 268 268 266 nan nan nan nan nan nan nan nan nan nan nan nan nan nan nan nan nan nan nan nan nan nan
301 283 262 276 281 295 311 324 326 326 313 324 322 319 306 294 272 262 258 258 259 262 263 262 261 258 252 252 253 254 252 245 242 247 254 250 247 243 237 232 234 237 238 242 248 248 253 257 260 258 259 261 261 261 260 257 257 261 263 269 269 268 267 266 nan nan nan nan nan nan nan nan nan nan nan nan nan nan nan nan nan nan nan nan nan
297 293 271 280 273 278 281 289 303 309 314 333 326 317 316 313 299 279 264 260 260 253 257 260 262 260 255 252 254 255 250 245 238 237 240 245 253 245 241 235 231 232 236 239 240 243 243 249 255 256 255 255 262 263 263 261 261 263 265 269 271 270 270 269 267 nan nan nan nan nan nan nan nan nan nan nan nan nan nan nan nan nan nan nan nan
271 265 276 275 258 251 265 281 294 298 315 324 318 319 316 307 301 299 280 266 265 256 252 259 258 256 250 252 256 255 249 241 238 237 236 235 237 240 241 237 235 233 234 238 241 243 244 246 249 254 256 253 257 262 264 264 264 267 269 270 271 272 272 273 272 271 268 nan nan nan nan nan nan nan nan nan nan nan nan nan nan nan nan nan nan
280 273 263 273 268 258 255 273 289 301 310 310 307 309 312 307 291 279 287 282 273 270 262 261 262 259 252 249 251 249 242 238 236 238 240 237 235 240 239 236 234 236 237 240 241 244 246 249 250 249 253 255 255 257 260 264 266 267 270 272 273 273 273 273 275 275 274 274 nan nan nan nan nan nan nan nan nan nan nan nan nan nan nan nan nan
274 265 260 249 259 269 268 275 285 299 304 304 302 293 290 301 299 277 281 288 282 280 268 261 263 262 252 247 248 244 235 233 236 236 236 238 nan 241 235 234 235 235 237 240 244 246 247 249 253 250 248 252 255 255 256 257 263 266 268 270 273 273 273 273 275 276 276 279 281 nan nan nan nan nan nan nan nan nan nan nan nan nan nan nan nan
258 261 264 261 261 267 272 276 276 289 295 296 294 288 285 281 293 285 273 276 283 278 271 264 268 270 252 237 244 245 229 226 233 238 237 238 241 246 241 234 231 234 235 237 241 244 246 246 248 250 248 249 251 252 254 252 254 260 264 267 269 271 273 274 275 277 278 280 283 nan nan nan nan nan nan nan nan nan nan nan nan nan nan nan nan
285 291 287 271 261 260 266 274 275 284 292 293 291 290 288 283 282 285 279 268 260 266 266 262 261 276 273 235 233 238 229 225 230 239 244 nan nan nan nan 243 242 234 234 238 242 244 245 247 248 250 248 245 244 246 249 251 249 250 259 264 268 271 274 275 277 280 281 282 283 284 283 nan nan nan nan nan nan nan nan nan nan nan nan nan nan
302 293 289 283 263 262 268 275 278 277 279 283 279 277 276 278 280 274 276 271 260 257 259 263 270 282 282 251 240 241 240 237 nan 246 251 nan nan nan nan nan nan 240 234 237 243 244 247 248 249 251 252 251 250 249 248 246 248 249 250 258 265 271 276 278 280 282 284 283 284 285 285 nan nan nan nan nan nan nan nan nan nan nan nan nan nan
289 285 281 282 283 280 275 270 266 266 266 267 267 268 269 271 272 265 263 272 271 272 274 264 262 287 280 266 250 239 251 250 251 nan 251 252 nan nan nan nan nan 241 237 236 240 244 247 250 251 251 252 253 253 253 252 251 250 249 246 245 249 256 266 278 283 285 286 287 288 287 285 288 nan nan nan nan nan nan nan nan nan nan nan nan nan
286 284 281 277 276 275 272 267 265 267 266 265 264 263 264 268 266 271 262 253 263 269 271 261 268 266 267 nan 257 nan nan nan nan nan 252 nan nan nan nan nan nan nan 250 247 243 242 246 251 251 251 251 251 252 253 254 254 255 257 252 246 245 245 250 264 281 286 288 290 291 290 285 288 289 nan nan nan nan nan nan nan nan nan nan nan nan
nan 277 274 275 275 273 265 264 268 270 272 270 268 266 261 261 263 265 269 272 264 262 261 256 255 265 254 257 259 nan nan nan nan nan nan nan 248 nan nan 249 248 nan 249 252 255 251 247 247 251 254 251 246 245 249 252 253 257 259 257 251 249 250 247 250 258 277 288 291 294 294 286 286 289 291 nan nan nan nan nan nan nan nan nan nan nan
nan nan nan 270 270 270 269 266 267 266 266 269 271 273 268 265 265 267 269 267 265 261 253 255 248 248 260 251 nan nan nan nan nan nan nan nan 243 244 248 249 247 246 245 246 249 251 251 252 254 256 256 252 245 241 243 249 250 252 255 256 252 254 258 255 250 255 273 282 288 291 288 287 289 290 290 291 nan nan nan nan nan nan nan nan nan
nan nan nan 265 267 269 270 274 274 275 277 272 265 262 262 262 270 272 268 263 270 264 258 253 249 244 248 248 nan nan 251 252 nan nan nan 252 nan nan nan nan nan 245 248 248 246 nan 254 257 256 255 255 254 248 242 239 239 243 247 250 252 257 256 259 263 267 261 252 268 284 289 288 288 291 291 289 291 293 nan nan nan nan nan nan nan nan
nan nan nan nan nan 266 269 272 275 277 278 278 281 285 283 275 266 267 271 269 268 266 271 264 252 246 242 245 245 245 253 nan nan 255 nan 247 249 nan 245 nan 240 238 236 237 241 244 nan 249 253 256 255 253 251 244 237 236 235 236 240 245 253 258 260 259 261 264 264 259 260 269 284 289 289 290 291 292 294 294 nan nan nan nan nan nan nan
nan nan nan nan nan nan nan nan 268 270 274 277 278 275 268 261 262 260 262 265 267 269 266 265 264 253 246 245 244 243 244 250 255 nan nan nan nan nan 250 nan 241 241 240 237 nan 249 246 nan nan 252 250 249 249 246 239 234 235 237 238 239 245 251 256 258 259 260 259 259 260 264 267 277 284 284 287 288 290 293 294 297 nan nan nan nan nan
nan nan nan nan nan nan nan nan nan nan nan nan nan 265 266 267 262 259 258 254 256 260 261 260 260 262 255 247 246 245 245 247 250 254 255 255 nan nan nan nan nan nan nan nan nan nan 246 245 251 nan nan 246 245 245 242 235 234 238 240 238 241 246 251 255 254 255 255 254 259 263 264 265 267 264 271 282 287 290 292 295 297 301 307 nan nan
nan nan nan nan nan nan nan nan nan nan nan nan nan nan nan nan nan nan 262 257 251 nan 258 260 261 260 259 263 256 nan nan nan nan nan 253 255 nan nan nan nan nan nan nan nan nan nan nan nan nan nan nan nan 244 235 nan 235 234 236 238 239 241 244 246 247 248 250 253 256 260 267 265 263 264 270 272 273 279 281 285 291 296 299 303 306 305
nan nan nan nan nan nan nan nan nan nan nan nan nan nan nan nan nan nan nan nan nan nan nan nan nan nan nan nan nan nan nan nan nan nan nan nan nan nan nan nan nan nan nan nan nan nan nan nan nan nan nan nan nan 243 241 246 244 241 239 234 236 243 247 248 247 248 249 251 nan 249 245 245 247 257 271 271 274 288 292 288 291 293 296 300 299
nan nan nan nan nan nan nan nan nan nan nan nan nan nan nan nan nan nan nan nan nan nan nan nan nan nan nan nan nan nan nan nan nan nan nan nan nan nan nan nan nan nan nan nan nan nan nan nan nan nan nan nan nan nan nan nan nan 238 239 nan 238 238 238 241 246 246 245 246 251 260 259 258 259 256 254 260 266 271 284 290 291 296 296 296 297
nan nan nan nan nan nan nan nan nan nan nan nan nan nan nan nan nan nan nan nan nan nan nan nan nan nan nan nan nan nan nan nan nan nan nan nan nan nan nan nan nan nan nan nan nan nan nan nan nan nan nan nan nan nan nan nan nan 234 240 236 235 235 242 237 238 242 247 249 245 251 258 259 259 263 264 258 257 257 259 267 275 274 278 280 284
nan nan nan nan nan nan nan nan nan nan nan nan nan nan nan nan nan nan nan nan nan nan nan nan nan nan nan nan nan nan nan nan nan nan nan nan nan nan nan nan nan nan nan nan nan nan nan nan nan nan nan nan nan nan nan nan nan 226 230 230 228 228 nan nan 237 238 240 245 244 249 254 255 257 255 257 260 262 265 269 267 262 269 269 271 278
nan nan nan nan nan nan nan nan nan nan nan nan nan nan nan nan nan nan nan nan nan nan nan nan nan nan nan nan nan nan nan nan nan nan nan nan nan nan nan nan nan nan nan nan nan nan nan nan nan nan nan nan nan nan nan 232 230 225 228 230 232 234 nan nan nan nan nan nan 247 248 251 252 251 250 nan 249 251 250 253 268 273 274 277 279 279
nan nan nan nan nan nan nan nan nan nan nan nan nan nan nan nan nan nan nan nan nan nan nan nan nan nan nan nan nan nan nan nan nan nan nan nan nan nan nan nan nan nan nan nan nan nan nan nan nan nan nan nan nan nan nan nan nan nan nan nan nan nan nan nan nan nan nan nan nan 251 nan nan nan nan nan nan nan 252 254 262 265 265 271 274 274
nan nan nan nan nan nan nan nan nan nan nan nan nan nan nan nan nan nan nan nan nan nan nan nan nan nan nan nan nan nan nan nan nan nan nan nan nan nan nan nan nan nan nan nan nan nan nan nan nan nan nan nan nan nan nan nan nan nan nan nan nan nan nan nan nan nan nan nan nan nan 243 245 nan nan nan nan nan nan nan nan 264 267 269 271 271
nan nan nan nan nan nan nan nan nan nan nan nan nan nan nan nan nan nan nan nan nan nan nan nan nan nan nan nan nan nan nan nan nan nan nan nan nan nan nan nan nan nan nan nan nan nan nan nan nan nan nan nan nan nan nan nan nan nan nan nan nan nan nan nan nan nan nan nan nan nan nan 239 239 nan nan nan nan nan nan nan nan nan nan 264 271
nan nan nan nan nan nan nan nan nan nan nan nan nan nan nan nan nan nan nan nan nan nan nan nan nan nan nan nan nan nan nan nan nan nan nan nan nan nan nan nan nan nan nan nan nan nan nan nan nan nan nan nan nan nan nan nan nan nan nan nan nan nan nan nan nan nan nan nan nan nan nan nan nan nan nan nan nan nan nan nan nan nan nan nan nan
nan nan nan nan nan nan nan nan nan nan nan nan nan nan nan nan nan nan nan nan nan nan nan nan nan nan nan nan nan nan nan nan nan nan nan nan nan nan nan nan nan nan nan nan nan nan nan nan nan nan nan nan nan nan nan nan nan nan nan nan nan nan nan nan nan nan nan nan nan nan nan nan nan nan nan nan nan nan nan nan nan nan nan nan nan
nan nan nan nan nan nan nan nan nan nan nan nan nan nan nan nan nan nan nan nan nan nan nan nan nan nan nan nan nan nan nan nan nan nan nan nan nan nan nan nan nan nan nan nan nan nan nan nan nan nan nan nan nan nan nan nan nan nan nan nan nan nan nan nan nan nan nan nan nan nan nan nan nan nan nan nan nan nan nan nan nan nan nan nan nan
nan nan nan nan nan nan nan nan nan nan nan nan nan nan nan nan nan nan nan nan nan nan nan nan nan nan nan nan nan nan nan nan nan nan nan nan nan nan nan nan nan nan nan nan nan nan nan nan nan nan nan nan nan nan nan nan nan nan nan nan nan nan nan nan nan nan nan nan nan nan nan nan nan nan nan nan nan nan nan nan nan nan nan nan nan
nan nan nan nan nan nan nan nan nan nan nan nan nan nan nan nan nan nan nan nan nan nan nan nan nan nan nan nan nan nan nan nan nan nan nan nan nan nan nan nan nan nan nan nan nan nan nan nan nan nan nan nan nan nan nan nan nan nan nan nan nan nan nan nan nan nan nan nan nan nan nan nan nan nan nan nan nan nan nan nan nan nan nan nan nan
nan nan nan nan nan nan nan nan nan nan nan nan nan nan nan nan nan nan nan nan nan nan nan nan nan nan nan nan nan nan nan nan nan nan nan nan nan nan nan nan nan nan nan nan nan nan nan nan nan nan nan nan nan nan nan nan nan nan nan nan nan nan nan nan nan nan nan nan nan nan nan nan nan nan nan nan nan nan nan nan nan nan nan nan nan
nan nan nan nan nan nan nan nan nan nan nan nan nan nan nan nan nan nan nan nan nan nan nan nan nan nan nan nan nan nan nan nan nan nan nan nan nan nan nan nan nan nan nan nan nan nan nan nan nan nan nan nan nan nan nan nan nan nan nan nan nan nan nan nan nan nan nan nan nan nan nan nan nan nan nan nan nan nan nan nan nan nan nan nan nan
nan nan nan nan nan nan nan nan nan nan nan 294 nan nan nan nan nan nan nan nan nan nan nan nan nan nan nan nan nan nan nan nan nan nan nan nan nan nan nan nan nan nan nan nan nan nan nan nan nan nan nan nan nan nan nan nan nan nan nan nan nan nan nan nan nan nan nan nan nan nan nan nan nan nan nan nan nan nan nan nan nan nan nan nan nan
nan nan nan nan nan nan nan nan nan nan nan nan nan nan nan nan nan nan nan nan nan nan nan nan nan nan nan nan nan nan nan nan nan nan nan nan nan nan nan nan nan nan nan nan nan nan nan nan nan nan nan nan nan nan nan nan nan nan nan nan nan nan nan nan nan nan nan nan nan nan nan nan nan nan nan nan nan nan nan nan nan nan nan nan nan
nan nan nan nan nan nan nan nan nan nan nan nan nan nan nan nan nan nan nan nan nan 292 nan nan nan nan nan nan nan nan nan nan nan nan nan nan nan nan nan nan nan nan nan nan nan nan nan nan nan nan nan nan nan nan nan nan nan nan nan nan nan nan nan nan nan nan nan nan nan nan nan nan nan nan nan nan nan nan nan nan nan nan nan nan nan
nan nan nan nan nan nan nan nan nan nan nan nan nan nan nan nan nan nan nan nan nan 299 296 nan nan nan nan nan nan nan nan nan nan nan nan nan nan nan nan nan nan nan nan nan nan nan nan nan nan nan nan nan nan nan nan nan nan nan nan nan nan nan nan nan nan nan nan nan nan nan nan nan nan nan nan nan nan nan nan nan nan nan nan nan nan
nan nan nan nan nan nan nan nan nan nan nan nan nan nan nan nan nan nan nan nan nan nan nan nan nan nan nan nan nan nan nan nan nan nan nan nan nan nan nan nan nan nan nan nan nan nan nan nan nan nan nan nan nan nan nan nan nan nan nan nan nan nan nan nan nan nan nan nan nan nan nan nan nan nan nan nan nan nan nan nan nan nan nan nan nan
nan nan nan nan nan nan nan nan nan nan nan nan nan nan nan nan nan nan 289 294 nan 297 297 296 296 294 290 285 nan nan nan nan nan nan nan nan nan nan nan nan nan nan nan nan nan nan nan nan nan nan nan nan nan nan nan nan nan nan nan nan nan nan nan nan nan nan nan nan nan nan nan nan nan nan nan nan nan nan nan nan nan nan nan nan nan
nan 283 282 283 282 281 279 278 277 276 276 nan nan nan 277 280 282 284 286 290 292 294 294 294 290 289 nan nan nan nan nan nan nan nan nan nan nan nan nan nan nan nan nan nan nan nan nan nan nan nan nan nan nan nan nan nan nan nan nan nan nan nan nan nan nan nan nan nan nan nan nan nan nan nan nan nan nan nan nan nan nan nan nan nan nan
nan nan nan nan nan 277 276 276 276 274 273 267 268 271 276 282 287 288 284 287 289 290 290 287 287 290 289 nan nan nan nan nan nan nan nan nan nan nan nan nan nan nan nan nan nan nan nan nan nan nan nan nan nan nan nan nan nan nan nan nan nan nan nan nan nan nan nan nan nan nan nan nan nan nan nan nan nan nan nan nan nan nan nan nan nan
nan nan nan nan nan 276 275 275 272 271 271 268 270 274 275 277 281 285 282 284 285 285 285 287 288 285 284 nan nan nan nan nan nan nan nan nan nan nan nan nan nan nan nan nan nan nan nan nan nan nan nan nan nan nan nan nan nan nan nan nan nan nan nan nan nan nan nan nan nan nan nan nan nan nan nan nan nan nan nan nan nan nan nan nan nan
nan nan nan nan nan nan 273 272 271 269 269 267 271 nan nan nan 270 273 274 274 275 275 275 275 275 nan nan nan nan nan nan nan nan nan nan nan nan nan nan nan nan nan nan nan nan nan nan nan nan nan nan nan nan nan nan nan nan nan nan nan nan nan nan nan nan nan nan nan nan nan nan nan nan nan nan nan nan nan nan nan nan nan nan nan nan
nan nan nan nan nan nan 273 272 271 nan nan nan nan nan nan nan nan nan 272 273 274 275 275 276 278 nan nan nan nan nan nan nan nan nan nan nan nan nan nan nan nan nan nan nan nan nan nan nan nan nan nan nan nan nan nan nan nan nan nan nan nan nan nan nan nan nan nan nan nan nan nan nan nan nan nan nan nan nan nan nan nan nan nan nan nan
nan nan nan nan nan nan nan nan 275 273 271 nan nan nan nan nan nan nan nan nan nan nan nan 275 276 nan nan nan nan nan nan nan nan nan nan nan nan nan nan nan nan nan nan nan nan nan nan nan nan nan nan nan nan nan nan nan nan nan nan nan nan nan nan nan nan nan nan nan nan nan nan nan nan nan nan nan nan nan nan nan nan nan nan nan nan
nan nan nan nan nan nan 281 280 279 277 274 272 nan nan nan nan nan nan nan nan nan nan nan nan nan nan nan nan nan nan nan nan nan nan nan nan nan nan nan nan nan nan nan nan nan nan nan nan nan nan nan nan nan nan nan nan nan nan nan nan nan nan nan nan nan nan nan nan nan nan nan nan nan nan nan nan nan nan nan nan nan nan nan nan nan
nan nan nan nan nan 274 275 278 279 278 276 274 nan nan nan nan nan nan nan nan nan nan nan nan nan nan nan nan nan nan nan nan nan nan nan nan nan nan nan nan nan nan nan nan nan nan nan nan nan nan nan nan nan nan nan nan nan nan nan nan nan nan nan nan nan nan nan nan nan nan nan nan nan nan nan nan nan nan nan nan nan nan nan nan nan